Location: Perryvale
(54.4667°N, 113.3833°W)
Time: 21:34:11
(UTC+00:00)

Transit 2A - Pass Details

Date: 26 May 2024
Orbit: 592 x 959 km, 66.7° (Epoch: 19 June)

Event Time Altitude Azimuth Distance (km) Brightness Sun altitude
Rises 05:50:02 0° 212° (SSW) 2,964 8.7 -11.3°
Reaches altitude 10° 05:52:13 10° 211° (SSW) 2,101 7.9 -11.4°
Maximum altitude 05:56:58 73° 127° (SE) 761 5.8 -11.7°
Drops below altitude 10° 06:02:18 10° 44° (NE) 2,349 8.9 -12.0°
Sets 06:04:51 0° 43° (NE) 3,344 9.7 -12.1°
